Location: Härggis
(46.9540°N, 8.4897°E)
Time: 03:04:17
(UTC+00:00)

Cosmos 1980 - Pass Details

Date: 27 May 2022
Orbit: 840 x 846 km, 71.0° (Epoch: 26 June)

Event Time Altitude Azimuth Distance (km) Brightness Sun altitude
Exits shadow 00:05:57 43° 181° (S) 1,159 3.9 -21.1°
Maximum altitude 00:07:44 70° 113° (ESE) 896 3.7 -21.0°
Drops below altitude 10° 00:13:22 10° 31° (NNE) 2,466 7.2 -20.9°
Sets 00:15:49 0° 29° (NNE) 3,405 8.2 -20.8°
